Location: Blazny
(46.0612°N, 84.4033°W)
Time: 08:57:38
(UTC-04:00)

ARIANE 6 FM1 Upper Stage - Pass Details

Date: 23 September 2024
Orbit: 564 x 594 km, 62.0° (Epoch: 03 October)

Event Time Altitude Azimuth Distance (km) Brightness Sun altitude
Rises 20:52:01 0° 222° (SW) 2,772 6.6 -14.6°
Reaches altitude 10° 20:54:14 10° 223° (SW) 1,883 5.7 -14.9°
Maximum altitude 20:58:30 82° 311° (NW) 593 2.8 -15.7°
Drops below altitude 10° 21:02:50 10° 40° (NE) 1,915 5.1 -16.4°
Enters shadow 21:03:59 - 41° (NE) 2,378 5.6 -16.6°
